Location: Unspecified
(0.0000°N, 0.0000°E)
Time: 09:10:12
(UTC+00:00)

deb r/b Ablestar - Pass Details

Date: 19 February 2026
Orbit: 888 x 1147 km, 67.2° (Epoch: 14 March)

Event Time Altitude Azimuth Distance (km) Brightness Sun altitude
Exits shadow 04:57:21 27° 267° (W) 2,015 ? -18.7°
Maximum altitude 04:58:34 29° 250° (WSW) 1,965 ? -18.4°
Drops below altitude 10° 05:04:38 10° 193° (SSW) 3,038 ? -17.0°
Sets 05:07:46 0° 182° (S) 3,992 ? -16.2°
